TimeEDT,TemperatureF,Dew PointF,Humidity,Sea Level PressureIn,VisibilityMPH,Wind Direction,Wind SpeedMPH,Gust SpeedMPH,PrecipitationIn,Events,Conditions,WindDirDegrees,DateUTC
12:15 AM,44.6,37.4,76,30.22,10.0,Calm,Calm,-,N/A,,Clear,0,2013-05-14 04:15:00
12:35 AM,42.8,37.4,81,30.22,10.0,Calm,Calm,-,N/A,,Clear,0,2013-05-14 04:35:00
12:55 AM,42.8,37.4,81,30.21,10.0,Calm,Calm,-,N/A,,Clear,0,2013-05-14 04:55:00
1:15 AM,42.8,37.4,81,30.21,10.0,Calm,Calm,-,N/A,,Clear,0,2013-05-14 05:15:00
1:35 AM,41.0,37.4,87,30.21,10.0,Calm,Calm,-,N/A,,Clear,0,2013-05-14 05:35:00
1:55 AM,41.0,37.4,87,30.20,10.0,Calm,Calm,-,N/A,,Clear,0,2013-05-14 05:55:00
2:15 AM,41.0,37.4,87,30.20,10.0,Calm,Calm,-,N/A,,Clear,0,2013-05-14 06:15:00
2:35 AM,41.0,37.4,87,30.20,10.0,Calm,Calm,-,N/A,,Clear,0,2013-05-14 06:35:00
2:55 AM,41.0,37.4,87,30.19,10.0,Calm,Calm,-,N/A,,Clear,0,2013-05-14 06:55:00
3:15 AM,41.0,37.4,87,30.19,10.0,Calm,Calm,-,N/A,,Clear,0,2013-05-14 07:15:00
3:35 AM,39.2,37.4,93,30.18,10.0,Calm,Calm,-,N/A,,Clear,0,2013-05-14 07:35:00
3:55 AM,39.2,37.4,93,30.19,10.0,Calm,Calm,-,N/A,,Clear,0,2013-05-14 07:55:00
4:15 AM,37.4,37.4,100,30.18,10.0,Calm,Calm,-,N/A,,Clear,0,2013-05-14 08:15:00
4:35 AM,39.2,37.4,93,30.19,10.0,Calm,Calm,-,N/A,,Clear,0,2013-05-14 08:35:00
4:55 AM,39.2,37.4,93,30.19,10.0,Calm,Calm,-,N/A,,Clear,0,2013-05-14 08:55:00
5:15 AM,37.4,35.6,93,30.19,10.0,SE,3.5,-,N/A,,Clear,140,2013-05-14 09:15:00
5:35 AM,37.4,37.4,100,30.19,10.0,Calm,Calm,-,N/A,,Clear,0,2013-05-14 09:35:00
5:55 AM,39.2,37.4,93,30.20,10.0,Calm,Calm,-,N/A,,Scattered Clouds,0,2013-05-14 09:55:00
6:15 AM,41.0,39.2,93,30.19,10.0,Calm,Calm,-,N/A,,Scattered Clouds,0,2013-05-14 10:15:00
6:35 AM,42.8,37.4,81,30.20,10.0,Calm,Calm,-,N/A,,Mostly Cloudy,0,2013-05-14 10:35:00
6:55 AM,42.8,39.2,87,30.20,10.0,Calm,Calm,-,N/A,,Scattered Clouds,0,2013-05-14 10:55:00
7:15 AM,44.6,39.2,81,30.20,10.0,South,3.5,-,N/A,,Mostly Cloudy,170,2013-05-14 11:15:00
7:35 AM,44.6,37.4,76,30.20,10.0,South,4.6,-,N/A,,Overcast,170,2013-05-14 11:35:00
7:55 AM,46.4,37.4,71,30.21,10.0,SSE,4.6,-,N/A,,Scattered Clouds,160,2013-05-14 11:55:00
8:15 AM,46.4,37.4,71,30.20,10.0,South,4.6,-,N/A,,Clear,170,2013-05-14 12:15:00
8:35 AM,48.2,37.4,66,30.20,10.0,SSE,6.9,-,N/A,,Clear,160,2013-05-14 12:35:00
8:55 AM,51.8,37.4,58,30.20,10.0,South,8.1,-,N/A,,Clear,170,2013-05-14 12:55:00
9:15 AM,51.8,37.4,58,30.20,10.0,South,6.9,-,N/A,,Clear,180,2013-05-14 13:15:00
9:35 AM,53.6,39.2,58,30.20,10.0,South,9.2,-,N/A,,Scattered Clouds,170,2013-05-14 13:35:00
9:55 AM,55.4,39.2,54,30.18,10.0,South,6.9,-,N/A,,Scattered Clouds,190,2013-05-14 13:55:00
10:15 AM,59.0,39.2,48,30.18,10.0,SSW,9.2,-,N/A,,Clear,200,2013-05-14 14:15:00
10:35 AM,60.8,41.0,48,30.17,10.0,South,6.9,-,N/A,,Clear,170,2013-05-14 14:35:00
10:55 AM,62.6,41.0,45,30.16,10.0,South,9.2,-,N/A,,Clear,180,2013-05-14 14:55:00
11:15 AM,64.4,42.8,45,30.16,10.0,South,6.9,-,N/A,,Clear,180,2013-05-14 15:15:00
11:35 AM,66.2,42.8,43,30.15,10.0,SSW,8.1,-,N/A,,Clear,210,2013-05-14 15:35:00
11:55 AM,68.0,42.8,40,30.15,10.0,SSW,10.4,16.1,N/A,,Clear,210,2013-05-14 15:55:00
12:15 PM,69.8,44.6,40,30.13,10.0,SW,8.1,-,N/A,,Clear,220,2013-05-14 16:15:00
12:35 PM,71.6,46.4,41,30.13,10.0,WSW,10.4,17.3,N/A,,Clear,240,2013-05-14 16:35:00
12:55 PM,71.6,48.2,43,30.12,10.0,WSW,13.8,20.7,N/A,,Clear,250,2013-05-14 16:55:00
1:15 PM,73.4,46.4,38,30.10,10.0,SW,13.8,20.7,N/A,,Clear,230,2013-05-14 17:15:00
1:35 PM,73.4,48.2,41,30.10,10.0,WSW,19.6,24.2,N/A,,Clear,250,2013-05-14 17:35:00
1:55 PM,75.2,48.2,38,30.08,10.0,WSW,16.1,23.0,N/A,,Clear,240,2013-05-14 17:55:00
2:15 PM,77.0,48.2,36,30.08,10.0,WSW,16.1,21.9,N/A,,Clear,240,2013-05-14 18:15:00
2:35 PM,77.0,46.4,34,30.07,10.0,WSW,15.0,25.3,N/A,,Clear,240,2013-05-14 18:35:00
2:55 PM,77.0,50.0,39,30.05,10.0,WSW,11.5,21.9,N/A,,Clear,240,2013-05-14 18:55:00
3:15 PM,78.8,48.2,34,30.05,10.0,WSW,16.1,25.3,N/A,,Clear,250,2013-05-14 19:15:00
3:35 PM,78.8,50.0,36,30.03,10.0,WSW,16.1,25.3,N/A,,Clear,240,2013-05-14 19:35:00
3:55 PM,78.8,50.0,36,30.02,10.0,WSW,18.4,21.9,N/A,,Clear,240,2013-05-14 19:55:00
4:15 PM,78.8,50.0,36,30.02,10.0,WSW,13.8,20.7,N/A,,Clear,240,2013-05-14 20:15:00
4:35 PM,78.8,50.0,36,30.01,10.0,WSW,15.0,24.2,N/A,,Clear,240,2013-05-14 20:35:00
4:55 PM,78.8,50.0,36,30.01,10.0,WSW,16.1,26.5,N/A,,Clear,240,2013-05-14 20:55:00
5:15 PM,78.8,51.8,39,30.01,10.0,WSW,15.0,19.6,N/A,,Clear,250,2013-05-14 21:15:00
5:35 PM,78.8,51.8,39,30.00,10.0,WSW,11.5,23.0,N/A,,Clear,240,2013-05-14 21:35:00
5:55 PM,78.8,50.0,36,30.00,10.0,SW,15.0,19.6,N/A,,Clear,230,2013-05-14 21:55:00
6:15 PM,78.8,51.8,39,29.99,10.0,WSW,15.0,20.7,N/A,,Clear,240,2013-05-14 22:15:00
6:35 PM,78.8,51.8,39,29.99,10.0,SW,11.5,-,N/A,,Clear,230,2013-05-14 22:35:00
6:55 PM,78.8,51.8,39,29.98,10.0,SW,10.4,16.1,N/A,,Clear,220,2013-05-14 22:55:00
7:15 PM,78.8,51.8,39,29.98,10.0,SW,11.5,16.1,N/A,,Clear,220,2013-05-14 23:15:00
7:35 PM,78.8,51.8,39,29.98,10.0,SW,8.1,19.6,N/A,,Clear,230,2013-05-14 23:35:00
7:55 PM,77.0,51.8,41,29.98,10.0,SW,9.2,-,N/A,,Clear,230,2013-05-14 23:55:00
8:15 PM,77.0,51.8,41,29.98,10.0,SW,5.8,-,N/A,,Clear,230,2013-05-15 00:15:00
8:35 PM,75.2,53.6,47,29.98,10.0,SW,6.9,-,N/A,,Clear,220,2013-05-15 00:35:00
8:55 PM,73.4,53.6,50,29.98,10.0,SW,4.6,-,N/A,,Clear,220,2013-05-15 00:55:00
9:15 PM,73.4,53.6,50,29.98,10.0,SSW,6.9,-,N/A,,Clear,210,2013-05-15 01:15:00
9:35 PM,73.4,53.6,50,29.99,10.0,SW,5.8,-,N/A,,Clear,220,2013-05-15 01:35:00
9:55 PM,71.6,53.6,53,30.00,10.0,SW,4.6,-,N/A,,Clear,220,2013-05-15 01:55:00
10:15 PM,71.6,53.6,53,30.01,10.0,SW,4.6,-,N/A,,Clear,230,2013-05-15 02:15:00
10:35 PM,69.8,53.6,56,30.02,10.0,SW,3.5,-,N/A,,Clear,220,2013-05-15 02:35:00
10:55 PM,69.8,53.6,56,30.02,10.0,SW,5.8,-,N/A,,Clear,230,2013-05-15 02:55:00
11:15 PM,69.8,53.6,56,30.02,10.0,SW,5.8,-,N/A,,Clear,230,2013-05-15 03:15:00
11:35 PM,69.8,53.6,56,30.02,10.0,SW,5.8,-,N/A,,Clear,230,2013-05-15 03:35:00
11:55 PM,69.8,53.6,56,30.02,10.0,SW,5.8,-,N/A,,Clear,230,2013-05-15 03:55:00